Location: Newark
(48.6676°N, 6.1917°E)
Time: 06:45:51
(UTC+00:00)

N. Korean satellite - Pass Details

Date: 14 December 2019
Orbit: 454 x 508 km, 97.2° (Epoch: 20 January)

Event Time Altitude Azimuth Distance (km) Brightness Sun altitude
Rises 04:51:09 0° 23° (NNE) 2,538 10.4 -23.4°
Reaches altitude 10° 04:53:29 10° 36° (NE) 1,644 9.5 -23.0°
Maximum altitude 04:56:29 26° 95° (E) 958 8.8 -22.5°
Drops below altitude 10° 04:59:26 10° 154° (SSE) 1,609 9.7 -22.1°
Sets 05:01:41 0° 167° (SSE) 2,471 10.5 -21.7°
